STARLINK-32573, 61725

Orbit data source: Space-Track

STARLINK-32573, 61725 is a payload satellite owned by SpaceX/Seattle (US) in LEO that was launched on Wed, 30 Oct 2024 UTC via an FALCON 9 launch vehicle from the Air Force Eastern Test Range (AFETR). Payload-class satellites include a variety of spacecraft equipped with specific instruments for various scientific and technological missions. These include communications satellites like Starlink; space stations such as the ISS; scientific satellites like the Hubble; Earth observation satellites from companies like Planet Labs, Umbra, and HawkEye 360; GPS; miniature CubeSats for education and research; and military/defense satellites.

Loading next visibility...
Identifier
61725, 2024-196U
Orbit
LEO
Country
Flag of USUS
Related business
Manufacturer
SpaceX/Seattle
Mission
Operational Commercial Communications
Bus & Motor
STARLINK V2M, Unknown motor
Mass
730 kg wet, ~700 kg dry
Launch date (UTC)
2024-10-30 (1 year ago)
Launch vehicle
FALCON 9
Launch site
Air Force Eastern Test Range (AFETR)
Object type
Payload
Rocket body
Debris
Shape & HBR
Box + 2 Pan, 17.7 m
Radar Cross Section
33.884 m², Large (>1 m²)

Expand to show TLE details & history
Last TLE update: 9 hours ago

TLE from 9 hours ago
0 STARLINK-32573
1 61725U 24196U   25343.22247692 -.00000484  00000-0 -42127-5 0  9993
2 61725  53.1608 161.6969 0001264  87.6600 272.4546 15.30190636 63300
Epoch: 2025-12-09T05:20Z
TLE epoch observation values (Epoch: 2025-12-09T05:20:22.005Z)
Latitude
-0°
Longitude
3.39496°
Altitude
476.106 km
Speed
7.629 km/s
True Right ascension
10h 46m 47s
True Declination
0° 00' 00"
Sunlit
Object was in daylight at epoch
Visualization orbit readout
Latitude
Unknown
Longitude
Unknown
Altitude
Unknown
Speed
Unknown
Apparent Right ascension
Unknown
Apparent Declination
Unknown
Sunlit
N/A
Visualization observer readout
Local Sidereal Time
12:31:20
Azimuth
Unknown
Elevation
Unknown
Doppler factor
Unknown
Orbital elements
Apogee altitude
476.366 km
Perigee altitude
474.633 km
Semi-major axis
6,853.636 km
Eccentricity
0.00013
Inclination
53.1608°
RAAN
161.6969°
Arg. of periapsis
87.66°
True anomaly
272.44013°
Mean anomaly
272.4546°
Eccentric anomaly
272.44736°
Mean motion
3.82527 °/min
Orbital period
94.11 mins
BSTAR
-0.0000042127
Loading maneuver chart data...
Computing Atmospheric mass density...
Loading historical data...
Loading historical data...
Loading historical data...
Loading historical data...
Loading historical data...
Loading historical data...
Loading historical data...

Documentation

Showing up to 5 results
|